Regional Weather Roundup
Issued by NWS

Home | Current Version | Previous Version | Graphics & Text | Print | Product List | Glossary On
Versions: 1 2 3 4 5 6 7 8 9 10 11 12 13 14 15 16 17 18 19 20 21 22 23 24 25 26 27 28 29 30 31 32 33 34 35 36 37 38 39 40 41 42 43 44 45 46 47 48 49 50
978
ASUS43 KOAX 280110
RWRNE

WEATHER ROUNDUP FOR NEBRASKA
NATIONAL WEATHER SERVICE OMAHA NE
800 PM CDT SAT MAY 27 2017

NOTES: SATELLITE DATA IS BEING USED TO AUGMENT CLOUD COVER ABOVE
       12000 FEET.
       "FAIR" INDICATES FEW OR NO CLOUDS BELOW 12,000 FEET WITH NO
       SIGNIFICANT WEATHER AND/OR OBSTRUCTIONS TO VISIBILITY.

  * THESE STATIONS DO NOT REPORT WEATHER SUCH AS RAIN...SNOW OR FOG.

NEZ001>004-019>022-054>056-280200-
NEBRASKA PANHANDLE

CITY           SKY/WX    TMP DP  RH WIND       PRES   REMARKS
SCOTTSBLUFF    SUNNY     62  43  49 CALM      30.10F
ALLIANCE       MOSUNNY   60  43  53 N7        30.08R
CHADRON        SUNNY     64  43  46 SW7       30.04F
GORDON         FAIR      64  40  41 W8        30.03S
KIMBALL        SUNNY     60  37  42 N12       30.15S
SIDNEY         SUNNY     59  42  53 NW8       30.12F
$$

NEZ057>060-069>072-079>082-280200-
SOUTHWEST NEBRASKA

CITY           SKY/WX    TMP DP  RH WIND       PRES   REMARKS
NORTH PLATTE   CLOUDY    62  53  72 CALM      30.03S
IMPERIAL       CLOUDY    62  50  64 NE6       30.06R
LEXINGTON      CLEAR     62  52  69 NW9       30.02R
MCCOOK         CLOUDY    63  50  62 N13       30.01F
OGALLALA       CLOUDY    64  46  51 NW13      30.07S
$$

NEZ005>010-023>029-035>040-094-280200-
NORTH CENTRAL NEBRASKA

CITY           SKY/WX    TMP DP  RH WIND       PRES   REMARKS
VALENTINE      MOSUNNY   67  46  47 SW7       29.97S
AINSWORTH      MOSUNNY   64  45  49 W3        29.98F
BROKEN BOW     CLOUDY    60  52  74 NW6       30.01S
O`NEILL        MOCLDY    62  51  68 W5        29.97S
ORD            CLOUDY    59  51  75 NW5       29.98S
THEDFORD       PTSUNNY   66  46  49 W3        30.02S
$$

NEZ041-046>049-061>064-073>077-083>087-280200-
SOUTH CENTRAL NEBRASKA

CITY           SKY/WX    TMP DP  RH WIND       PRES   REMARKS
GRAND ISLAND   CLOUDY    65  54  67 N10       29.97R
AURORA         CLOUDY    67  51  57 N13       29.96S
HASTINGS       CLOUDY    66  52  60 N12       29.97R
HEBRON         CLOUDY    73  55  53 N5        29.90S
HOLDREGE       CLOUDY    64  52  63 N9        30.00R
KEARNEY *      CLOUDY    66  52  59 NW15      30.00R
YORK           CLOUDY    68  52  56 N17G24    29.94R
$$

NEZ011>018-030>034-042>045-280200-
NORTHEAST NEBRASKA

CITY           SKY/WX    TMP DP  RH WIND       PRES   REMARKS
NORFOLK        CLOUDY    64  49  57 NW7       29.94R
ALBION         CLOUDY    64  50  62 NW12      29.98R
BLAIR          CLOUDY    68  55  64 E3        29.91S
FREMONT        CLOUDY    69  54  57 E3        29.92R
TEKAMAH        CLOUDY    69  53  56 E6        29.89S
WAYNE          CLOUDY    65  51  59 N7        29.94R
$$

NEZ050>053-065>068-078-088>093-280200-
SOUTHEAST NEBRASKA

CITY           SKY/WX    TMP DP  RH WIND       PRES   REMARKS
LINCOLN        CLOUDY    69  58  67 E8        29.90S
OMAHA EPPLEY   CLOUDY    69  54  58 NE5       29.89S
BEATRICE       PTCLDY    70  60  68 NE6       29.89S
FALLS CITY     PTCLDY    68  60  75 N10       29.85S
NEBRASKA CITY  CLOUDY    68  58  69 N9        29.89S
PLATTSMOUTH    CLOUDY    69  57  67 N3        29.89F
$$

NEZ044-045-051>053-067-280200-
OMAHA AREA

CITY           SKY/WX    TMP DP  RH WIND       PRES   REMARKS
OMAHA EPPLEY   CLOUDY    69  54  58 NE5       29.89S
BLAIR          CLOUDY    68  55  64 E3        29.91S
FREMONT        CLOUDY    69  54  57 E3        29.92R
MILLARD        CLOUDY    71  55  58 CALM      29.90S
OFFUTT AFB     CLOUDY    69  55  62 CALM      29.88F
PLATTSMOUTH    CLOUDY    69  57  67 N3        29.89F
WAHOO          CLOUDY    69  54  57 E6        29.91R
$$




USA.gov is the U.S. government's official web portal to all federal, state and local government web resources and services.